Location: Miami
(25.7742°N, 80.1936°W)
Time: 01:22:22
(UTC-04:00)

ISS - Pass Details

Date: 18 June 2025
Orbit: 413 x 417 km, 51.6° (Epoch: 16 July)

Event Time Altitude Azimuth Distance (km) Brightness Sun altitude
Exits shadow 04:43:46 40° 130° (SE) 623 -2.9 -20.7°
Maximum altitude 04:43:49 40° 128° (SE) 623 -2.9 -20.7°
Drops below altitude 10° 04:46:59 10° 57° (ENE) 1,490 0.2 -20.2°
Sets 04:49:09 0° 50° (NE) 2,356 1.7 -19.8°
